#timestamp,LO_Frequency,Hit,StdDev 
1562346015.5,286046997.7,N
1562346035.4,286046998.2,N
1562346055.2,286046998.4,N
1562346075.1,286046998.6,N
1562346076.0,286046998.6,N
1562346095.8,286047001.1,N
1562346115.6,286047000.9,N
1562346135.5,286047001.1,N
1562346155.3,286047000.4,N
1562346175.1,286046999.8,N
1562346195.9,286046998.6,N
1562346215.7,286047002.0,N
1562346235.6,286047000.6,N
1562346255.4,286047000.5,N
1562346275.2,286046997.5,N
1562346295.1,286047000.6,N
1562346296.0,286047000.6,N
1562346315.8,286047000.6,N
1562346335.6,286046999.5,N
1562346355.5,286047000.9,N
1562346375.3,286047001.2,N
1562346395.2,286047000.7,N
1562346415.9,286047001.0,N
1562346435.7,286047002.4,N
1562346455.6,286047000.0,N
1562346475.4,286046998.5,N
1562346495.2,286047001.2,N
1562346515.1,286046998.5,N
1562346516.0,286046998.5,N
1562346535.8,286047000.6,N
1562346555.7,286047000.0,N
1562346575.5,286047002.0,N
1562346595.3,286047001.8,N
1562346615.2,286047001.5,N
1562346635.0,286047001.0,N
1562346635.9,286047001.0,N
1562346655.8,286046999.9,N
1562346675.6,286047000.0,N
1562346695.4,286046999.7,N
1562346715.3,286047000.5,N
1562346735.1,286047001.8,N
1562346755.9,286047003.1,N
1562346775.7,286047003.1,N
1562346795.5,286047003.2,N
1562346815.4,286047006.0,Y
1562346835.2,286047004.4,P
1562346855.0,286047005.6,P
1562346856.0,286047005.6,N
1562346875.8,286047004.7,N
1562346895.6,286047008.9,Y
1562346915.5,286047005.0,P
1562346935.3,286047006.9,P
1562346955.1,286047006.5,P
1562346975.9,286047008.3,Y
1562346995.7,286046999.7,P
1562347015.6,286047000.3,N
1562347035.4,286046999.4,N
1562347055.2,286046999.0,N
1562347075.1,286046995.7,N
1562347076.0,286046995.7,N
1562347095.8,286046997.8,N
1562347115.7,286046996.6,N
1562347135.5,286047001.0,N
1562347155.3,286046997.4,N
1562347175.2,286046996.6,N
1562347195.0,286046997.6,N
1562347195.9,286046997.6,N
1562347215.7,286046998.1,N
1562347235.6,286046999.0,N
1562347255.4,286046999.9,N
1562347275.3,286046999.9,N
1562347295.1,286047000.8,N
1562347296.0,286047000.8,N
1562347315.8,286046998.2,N
1562347335.7,286046998.8,N
1562347355.5,286047000.8,N
1562347375.3,286046998.4,N
1562347395.2,286047001.0,N
1562347415.0,286046996.4,N
1562347415.9,286046996.4,N
1562347435.8,286046995.0,N
1562347455.6,286046996.7,N
1562347475.4,286046998.7,N
1562347495.3,286047002.8,N
1562347515.1,286047004.3,N
1562347535.8,286047001.5,N
1562347555.7,286047000.8,N
1562347575.5,286047000.2,N
1562347595.4,286047004.0,N
1562347615.2,286047004.8,N
1562347635.0,286047006.3,N
1562347635.9,286047006.3,N
1562347655.8,286047011.9,Y
1562347675.6,286047009.9,P
1562347695.5,286047006.5,N
1562347715.3,286047008.2,N
1562347735.1,286047006.2,N
1562347755.9,286047004.8,N
1562347775.7,286047007.5,N
1562347795.5,286047007.2,N
1562347815.4,286047007.7,N
1562347835.2,286047010.3,Y
1562347855.1,286047004.3,P
1562347856.0,286047004.3,P
1562347875.8,286047002.3,N
1562347895.6,286047001.6,N
1562347915.5,286047003.7,N
1562347935.3,286047004.3,N
1562347955.1,286047004.4,Y
1562347975.9,286047000.8,P
1562347995.7,286047001.0,N
1562348015.6,286047002.5,N
1562348035.4,286047004.4,Y
1562348055.2,286046998.8,P
1562348075.1,286047002.1,N
1562348076.0,286047002.1,N
1562348095.8,286047001.0,N
1562348115.7,286047002.0,N
1562348135.5,286046999.7,N
1562348155.3,286047004.3,Y
1562348175.2,286047000.7,P
1562348195.0,286046999.9,N
1562348195.9,286046999.9,N
1562348215.8,286047002.4,Y
1562348235.6,286047001.6,P
1562348255.4,286047003.3,P
1562348275.3,286047007.5,P
1562348295.1,286047005.4,N
1562348315.9,286047002.9,N
1562348335.7,286047005.5,N
1562348355.5,286047005.8,N
1562348375.4,286047003.0,N
1562348395.2,286047001.8,N
1562348415.0,286046998.1,N
1562348416.0,286046998.1,N
1562348435.8,286046999.0,N
1562348455.6,286046999.4,N
1562348475.5,286046999.3,N
1562348495.3,286046999.3,N
1562348515.1,286046998.3,N
1562348535.9,286046997.8,N
1562348555.7,286046996.1,N
1562348575.6,286046992.7,N
1562348595.4,286046992.1,N
1562348615.2,286046994.2,N
1562348635.1,286046997.6,N
1562348636.0,286046997.6,N
1562348655.8,286046997.5,N
1562348675.6,286046992.7,N
1562348695.5,286046992.8,N
1562348715.3,286046994.4,N
1562348735.2,286046995.0,N
1562348755.9,286046999.2,N
1562348775.7,286047004.1,N
1562348795.6,286047007.1,N
1562348815.4,286047008.2,N
1562348835.2,286047012.8,N
1562348855.1,286047011.2,N
1562348856.0,286047011.2,N
1562348875.8,286047011.0,N
1562348895.7,286047013.5,N
1562348915.5,286047012.9,N
1562348935.3,286047015.3,N
1562348955.2,286047018.7,N
1562348975.0,286047018.0,N
1562348975.9,286047018.0,N
1562348995.7,286047018.2,N
1562349015.6,286047020.2,N
1562349035.4,286047020.6,N
1562349055.3,286047026.1,N
1562349075.1,286047025.5,N
1562349095.8,286047024.9,N
1562349115.7,286047019.3,N
1562349135.5,286047023.6,N
1562349155.4,286047018.0,N
1562349175.2,286047018.7,N
1562349195.0,286047020.2,N
1562349195.9,286047020.2,N
1562349215.8,286047021.8,N
1562349235.6,286047020.8,N
1562349255.5,286047019.5,N
1562349275.3,286047021.0,N
1562349295.1,286047020.0,Y
1562349315.9,286047004.7,P
1562349335.7,286047003.7,N
1562349355.5,286047003.6,N
1562349375.4,286047001.5,N
1562349395.2,286047001.6,N
1562349415.1,286047005.8,N
1562349416.0,286047005.8,N
1562349435.8,286047008.6,N
1562349455.6,286047013.8,Y
1562349475.5,286047010.7,P
1562349495.3,286047011.3,P
1562349515.2,286047010.3,P
1562349535.9,286047009.6,Y
1562349555.7,286047000.2,P
1562349575.6,286047004.2,N
1562349595.4,286047001.0,N
